Location: B?lite?ti
(46.2833°N, 22.7333°E)
Time: 03:54:02
(UTC+00:00)

NOSS 2-1 (E) - Pass Details

Date: 24 January 2021
Orbit: 434 x 1768 km, 63.3° (Epoch: 24 February)

Event Time Altitude Azimuth Distance (km) Brightness Sun altitude
Rises 17:45:03 0° 236° (SW) 2,428 7.5 -24.5°
Reaches altitude 10° 17:47:10 10° 244° (WSW) 1,539 6.5 -24.9°
Enters shadow 17:49:40 36° 287° (WNW) 725 4.4 -25.3°
